contact:dominique.lefevre@mio.osupytheas.fr, maurice.libes@osupytheas.fr, didier.mallarino@osupytheas.fr
Project:EMSO http://www.emso-fr.org/EMSO-France
Depth: 2436.0 m
Title:EMSO Ligure Ouest : Data MII capteur MICROCAT
DateTime_Computer,Latitude,Longitude,Temperature,Conductivity,Pressure,DateTime_Instrument
DateTime_Computer,Latitude,Longitude,degC,S m-1,dbar,DateTime_Instrument
2019-08-03T00:01:12Z,42.805,6.029,13.2991,4.59967,2469.89,2019-8-03T02:01:31Z
2019-08-03T00:04:15Z,42.805,6.029,13.2968,4.59971,2469.89,2019-8-03T02:04:35Z
2019-08-03T00:07:18Z,42.805,6.029,13.2974,4.59971,2469.89,2019-8-03T02:07:38Z
2019-08-03T00:10:21Z,42.805,6.029,13.2988,4.59981,2469.914,2019-8-03T02:10:41Z
2019-08-03T00:13:24Z,42.805,6.029,13.2978,4.59970,2469.876,2019-8-03T02:13:44Z
2019-08-03T00:16:27Z,42.805,6.029,13.2964,4.59973,2469.853,2019-8-03T02:16:47Z
2019-08-03T00:19:31Z,42.805,6.029,13.2973,4.59968,2469.867,2019-8-03T02:19:50Z
2019-08-03T00:22:34Z,42.805,6.029,13.2963,4.59960,2469.89,2019-8-03T02:22:54Z
2019-08-03T00:25:37Z,42.805,6.029,13.2961,4.59958,2469.876,2019-8-03T02:25:57Z
2019-08-03T00:28:40Z,42.805,6.029,13.2958,4.59966,2469.83,2019-8-03T02:29:00Z
2019-08-03T00:31:43Z,42.805,6.029,13.2973,4.59961,2469.867,2019-8-03T02:32:03Z
2019-08-03T00:34:47Z,42.805,6.029,13.2961,4.59958,2469.853,2019-8-03T02:35:06Z
2019-08-03T00:37:50Z,42.805,6.029,13.2969,4.59966,2469.844,2019-8-03T02:38:10Z
2019-08-03T00:40:53Z,42.805,6.029,13.2959,4.59958,2469.853,2019-8-03T02:41:13Z
2019-08-03T00:43:56Z,42.805,6.029,13.2960,4.59961,2469.867,2019-8-03T02:44:16Z
2019-08-03T00:46:59Z,42.805,6.029,13.2960,4.59971,2469.844,2019-8-03T02:47:19Z
2019-08-03T00:50:03Z,42.805,6.029,13.2964,4.59966,2469.867,2019-8-03T02:50:22Z
2019-08-03T00:53:06Z,42.805,6.029,13.2977,4.59966,2469.853,2019-8-03T02:53:26Z
2019-08-03T00:56:09Z,42.805,6.029,13.2960,4.59958,2469.83,2019-8-03T02:56:29Z
2019-08-03T00:59:12Z,42.805,6.029,13.2963,4.59958,2469.867,2019-8-03T02:59:32Z
2019-08-03T01:02:16Z,42.805,6.029,13.2958,4.59958,2469.83,2019-8-03T03:02:35Z
2019-08-03T01:05:19Z,42.805,6.029,13.2962,4.59957,2469.853,2019-8-03T03:05:39Z
2019-08-03T01:08:22Z,42.805,6.029,13.2958,4.59958,2469.844,2019-8-03T03:08:42Z
2019-08-03T01:11:25Z,42.805,6.029,13.2959,4.59956,2469.83,2019-8-03T03:11:45Z
2019-08-03T01:14:28Z,42.805,6.029,13.2961,4.59962,2469.83,2019-8-03T03:14:48Z
2019-08-03T01:17:31Z,42.805,6.029,13.2959,4.59959,2469.83,2019-8-03T03:17:51Z
2019-08-03T01:20:35Z,42.805,6.029,13.2964,4.59957,2469.83,2019-8-03T03:20:54Z
2019-08-03T01:23:38Z,42.805,6.029,13.2964,4.59958,2469.844,2019-8-03T03:23:58Z
2019-08-03T01:26:41Z,42.805,6.029,13.2958,4.59958,2469.806,2019-8-03T03:27:01Z
2019-08-03T01:29:44Z,42.805,6.029,13.2960,4.59958,2469.806,2019-8-03T03:30:04Z
2019-08-03T01:32:47Z,42.805,6.029,13.2961,4.59958,2469.844,2019-8-03T03:33:07Z
2019-08-03T01:35:51Z,42.805,6.029,13.2962,4.59959,2469.821,2019-8-03T03:36:10Z
2019-08-03T01:38:54Z,42.805,6.029,13.2966,4.59973,2469.773,2019-8-03T03:39:14Z
2019-08-03T01:41:57Z,42.805,6.029,13.2981,4.59973,2469.844,2019-8-03T03:42:17Z
2019-08-03T01:45:00Z,42.805,6.029,13.2969,4.59961,2469.806,2019-8-03T03:45:20Z
2019-08-03T01:48:03Z,42.805,6.029,13.2964,4.59958,2469.806,2019-8-03T03:48:23Z
2019-08-03T01:51:07Z,42.805,6.029,13.2969,4.59958,2469.821,2019-8-03T03:51:26Z
2019-08-03T01:54:10Z,42.805,6.029,13.2960,4.59958,2469.806,2019-8-03T03:54:30Z
2019-08-03T01:57:13Z,42.805,6.029,13.2964,4.59958,2469.783,2019-8-03T03:57:33Z
2019-08-03T02:00:17Z,42.805,6.029,13.2970,4.59981,2469.821,2019-8-03T04:00:36Z
2019-08-03T02:03:20Z,42.805,6.029,13.2968,4.59958,2469.797,2019-8-03T04:03:40Z
2019-08-03T02:06:23Z,42.805,6.029,13.2963,4.59959,2469.797,2019-8-03T04:06:43Z
2019-08-03T02:09:26Z,42.805,6.029,13.2971,4.59974,2469.746,2019-8-03T04:09:46Z
2019-08-03T02:12:29Z,42.805,6.029,13.2957,4.59958,2469.821,2019-8-03T04:12:49Z
2019-08-03T02:15:33Z,42.805,6.029,13.2961,4.59956,2469.797,2019-8-03T04:15:52Z
2019-08-03T02:18:36Z,42.805,6.029,13.2958,4.59958,2469.783,2019-8-03T04:18:55Z
2019-08-03T02:21:39Z,42.805,6.029,13.2964,4.59961,2469.797,2019-8-03T04:21:59Z
2019-08-03T02:24:42Z,42.805,6.029,13.2958,4.59956,2469.773,2019-8-03T04:25:02Z
2019-08-03T02:27:45Z,42.805,6.029,13.2961,4.59957,2469.76,2019-8-03T04:28:05Z
2019-08-03T02:30:48Z,42.805,6.029,13.2967,4.59961,2469.76,2019-8-03T04:31:08Z
2019-08-03T02:33:52Z,42.805,6.029,13.2958,4.59958,2469.75,2019-8-03T04:34:11Z
2019-08-03T02:36:55Z,42.805,6.029,13.2966,4.59964,2469.773,2019-8-03T04:37:15Z
2019-08-03T02:39:58Z,42.805,6.029,13.2957,4.59960,2469.737,2019-8-03T04:40:18Z
2019-08-03T02:43:01Z,42.805,6.029,13.2961,4.59958,2469.773,2019-8-03T04:43:21Z
2019-08-03T02:46:04Z,42.805,6.029,13.2958,4.59959,2469.773,2019-8-03T04:46:24Z
2019-08-03T02:49:08Z,42.805,6.029,13.2958,4.59959,2469.76,2019-8-03T04:49:27Z
2019-08-03T02:52:11Z,42.805,6.029,13.2958,4.59958,2469.76,2019-8-03T04:52:31Z
2019-08-03T02:55:14Z,42.805,6.029,13.2958,4.59957,2469.773,2019-8-03T04:55:34Z
2019-08-03T02:58:17Z,42.805,6.029,13.2957,4.59959,2469.737,2019-8-03T04:58:37Z
2019-08-03T03:01:20Z,42.805,6.029,13.2960,4.59958,2469.75,2019-8-03T05:01:40Z
2019-08-03T03:04:24Z,42.805,6.029,13.2958,4.59958,2469.76,2019-8-03T05:04:43Z
2019-08-03T03:07:27Z,42.805,6.029,13.2957,4.59956,2469.773,2019-8-03T05:07:47Z
2019-08-03T03:10:30Z,42.805,6.029,13.2964,4.59958,2469.783,2019-8-03T05:10:50Z
2019-08-03T03:13:33Z,42.805,6.029,13.2961,4.59955,2469.75,2019-8-03T05:13:53Z
2019-08-03T03:16:36Z,42.805,6.029,13.2957,4.59956,2469.75,2019-8-03T05:16:56Z
2019-08-03T03:19:40Z,42.805,6.029,13.2961,4.59958,2469.773,2019-8-03T05:19:59Z
2019-08-03T03:22:43Z,42.805,6.029,13.2961,4.59957,2469.737,2019-8-03T05:23:02Z
2019-08-03T03:25:46Z,42.805,6.029,13.2966,4.59957,2469.75,2019-8-03T05:26:06Z
2019-08-03T03:28:49Z,42.805,6.029,13.2958,4.59957,2469.773,2019-8-03T05:29:09Z
2019-08-03T03:31:52Z,42.805,6.029,13.2965,4.59958,2469.783,2019-8-03T05:32:12Z
2019-08-03T03:34:55Z,42.805,6.029,13.2957,4.59956,2469.773,2019-8-03T05:35:15Z
2019-08-03T03:37:59Z,42.805,6.029,13.2961,4.59956,2469.75,2019-8-03T05:38:18Z
2019-08-03T03:41:02Z,42.805,6.029,13.2957,4.59956,2469.737,2019-8-03T05:41:22Z
2019-08-03T03:44:05Z,42.805,6.029,13.2958,4.59972,2469.737,2019-8-03T05:44:25Z
2019-08-03T03:47:08Z,42.805,6.029,13.2958,4.59957,2469.75,2019-8-03T05:47:28Z
2019-08-03T03:50:11Z,42.805,6.029,13.2961,4.59958,2469.69,2019-8-03T05:50:31Z
2019-08-03T03:53:15Z,42.805,6.029,13.2960,4.59958,2469.75,2019-8-03T05:53:34Z
2019-08-03T03:56:18Z,42.805,6.029,13.2960,4.59958,2469.737,2019-8-03T05:56:38Z
2019-08-03T03:59:21Z,42.805,6.029,13.2958,4.59956,2469.737,2019-8-03T05:59:41Z
2019-08-03T04:02:24Z,42.805,6.029,13.2956,4.59955,2469.737,2019-8-03T06:02:44Z
2019-08-03T04:05:28Z,42.805,6.029,13.2958,4.59956,2469.727,2019-8-03T06:05:47Z
2019-08-03T04:08:31Z,42.805,6.029,13.2962,4.59956,2469.76,2019-8-03T06:08:50Z
2019-08-03T04:11:34Z,42.805,6.029,13.2957,4.59959,2469.713,2019-8-03T06:11:54Z
2019-08-03T04:14:37Z,42.805,6.029,13.2961,4.59960,2469.75,2019-8-03T06:14:57Z
2019-08-03T04:17:40Z,42.805,6.029,13.2957,4.59957,2469.773,2019-8-03T06:18:00Z
2019-08-03T04:20:43Z,42.805,6.029,13.2958,4.59957,2469.75,2019-8-03T06:21:03Z
2019-08-03T04:23:47Z,42.805,6.029,13.2957,4.59956,2469.75,2019-8-03T06:24:06Z
2019-08-03T04:26:50Z,42.805,6.029,13.2962,4.59958,2469.737,2019-8-03T06:27:10Z
2019-08-03T04:29:53Z,42.805,6.029,13.2959,4.59958,2469.737,2019-8-03T06:30:13Z
2019-08-03T04:32:56Z,42.805,6.029,13.2959,4.59960,2469.75,2019-8-03T06:33:16Z
2019-08-03T04:35:59Z,42.805,6.029,13.2956,4.59957,2469.773,2019-8-03T06:36:19Z
2019-08-03T04:39:03Z,42.805,6.029,13.2954,4.59961,2469.783,2019-8-03T06:39:22Z
2019-08-03T04:42:06Z,42.805,6.029,13.2961,4.59956,2469.773,2019-8-03T06:42:25Z
2019-08-03T04:45:09Z,42.805,6.029,13.2958,4.59958,2469.797,2019-8-03T06:45:29Z
2019-08-03T04:48:12Z,42.805,6.029,13.2957,4.59956,2469.76,2019-8-03T06:48:32Z
2019-08-03T04:51:15Z,42.805,6.029,13.2959,4.59959,2469.797,2019-8-03T06:51:35Z
2019-08-03T04:54:18Z,42.805,6.029,13.2959,4.59956,2469.773,2019-8-03T06:54:38Z
2019-08-03T04:57:22Z,42.805,6.029,13.2958,4.59958,2469.797,2019-8-03T06:57:41Z
2019-08-03T05:00:25Z,42.805,6.029,13.2958,4.59961,2469.783,2019-8-03T07:00:45Z
2019-08-03T05:03:28Z,42.805,6.029,13.2958,4.59957,2469.797,2019-8-03T07:03:48Z
2019-08-03T05:06:31Z,42.805,6.029,13.2957,4.59958,2469.797,2019-8-03T07:06:51Z
2019-08-03T05:09:34Z,42.805,6.029,13.2961,4.59956,2469.76,2019-8-03T07:09:54Z
2019-08-03T05:12:38Z,42.805,6.029,13.2961,4.59956,2469.783,2019-8-03T07:12:57Z
2019-08-03T05:15:41Z,42.805,6.029,13.2961,4.59958,2469.783,2019-8-03T07:16:01Z
2019-08-03T05:18:44Z,42.805,6.029,13.2961,4.59957,2469.821,2019-8-03T07:19:04Z
2019-08-03T05:21:47Z,42.805,6.029,13.2958,4.59958,2469.797,2019-8-03T07:22:07Z
2019-08-03T05:24:50Z,42.805,6.029,13.2957,4.59956,2469.797,2019-8-03T07:25:10Z
2019-08-03T05:27:53Z,42.805,6.029,13.2957,4.59957,2469.783,2019-8-03T07:28:13Z
2019-08-03T05:30:57Z,42.805,6.029,13.2959,4.59958,2469.76,2019-8-03T07:31:16Z
2019-08-03T05:34:00Z,42.805,6.029,13.2956,4.59956,2469.821,2019-8-03T07:34:20Z
2019-08-03T05:37:03Z,42.805,6.029,13.2957,4.59958,2469.806,2019-8-03T07:37:23Z
2019-08-03T05:40:06Z,42.805,6.029,13.2958,4.59955,2469.821,2019-8-03T07:40:26Z
2019-08-03T05:43:09Z,42.805,6.029,13.2958,4.59958,2469.806,2019-8-03T07:43:29Z
2019-08-03T05:46:13Z,42.805,6.029,13.2958,4.59956,2469.806,2019-8-03T07:46:32Z
2019-08-03T05:49:16Z,42.805,6.029,13.2961,4.59957,2469.83,2019-8-03T07:49:36Z
2019-08-03T05:52:19Z,42.805,6.029,13.2959,4.59957,2469.806,2019-8-03T07:52:39Z
2019-08-03T05:55:22Z,42.805,6.029,13.2957,4.59958,2469.83,2019-8-03T07:55:42Z
2019-08-03T05:58:26Z,42.805,6.029,13.2958,4.59961,2469.844,2019-8-03T07:58:45Z
2019-08-03T06:01:29Z,42.805,6.029,13.2957,4.59956,2469.83,2019-8-03T08:01:49Z
2019-08-03T06:04:32Z,42.805,6.029,13.2957,4.59956,2469.844,2019-8-03T08:04:52Z
2019-08-03T06:07:35Z,42.805,6.029,13.2958,4.59956,2469.806,2019-8-03T08:07:55Z
2019-08-03T06:10:38Z,42.805,6.029,13.2957,4.59955,2469.806,2019-8-03T08:10:58Z
2019-08-03T06:13:41Z,42.805,6.029,13.2959,4.59956,2469.83,2019-8-03T08:14:01Z
2019-08-03T06:16:45Z,42.805,6.029,13.2957,4.59957,2469.853,2019-8-03T08:17:04Z
2019-08-03T06:19:48Z,42.805,6.029,13.2958,4.59957,2469.867,2019-8-03T08:20:08Z
2019-08-03T06:22:51Z,42.805,6.029,13.2961,4.59957,2469.844,2019-8-03T08:23:11Z
2019-08-03T06:25:54Z,42.805,6.029,13.2959,4.59958,2469.806,2019-8-03T08:26:14Z
2019-08-03T06:28:57Z,42.805,6.029,13.2959,4.59956,2469.806,2019-8-03T08:29:17Z
2019-08-03T06:32:01Z,42.805,6.029,13.2961,4.59956,2469.83,2019-8-03T08:32:20Z
2019-08-03T06:35:04Z,42.805,6.029,13.2957,4.59956,2469.867,2019-8-03T08:35:24Z
2019-08-03T06:38:07Z,42.805,6.029,13.2961,4.59958,2469.89,2019-8-03T08:38:27Z
2019-08-03T06:41:10Z,42.805,6.029,13.2958,4.59956,2469.876,2019-8-03T08:41:30Z
2019-08-03T06:44:13Z,42.805,6.029,13.2961,4.59956,2469.853,2019-8-03T08:44:33Z
2019-08-03T06:47:17Z,42.805,6.029,13.2961,4.59958,2469.867,2019-8-03T08:47:36Z
2019-08-03T06:50:20Z,42.805,6.029,13.2959,4.59958,2469.853,2019-8-03T08:50:40Z
2019-08-03T06:53:23Z,42.805,6.029,13.2961,4.59958,2469.853,2019-8-03T08:53:43Z
2019-08-03T06:56:26Z,42.805,6.029,13.2958,4.59958,2469.89,2019-8-03T08:56:46Z
2019-08-03T06:59:29Z,42.805,6.029,13.2962,4.59959,2469.853,2019-8-03T08:59:49Z
2019-08-03T07:02:33Z,42.805,6.029,13.2967,4.59959,2469.867,2019-8-03T09:02:52Z
2019-08-03T07:05:36Z,42.805,6.029,13.2958,4.59957,2469.853,2019-8-03T09:05:56Z
2019-08-03T07:08:39Z,42.805,6.029,13.2957,4.59956,2469.89,2019-8-03T09:08:59Z
2019-08-03T07:11:42Z,42.805,6.029,13.2961,4.59956,2469.89,2019-8-03T09:12:02Z
2019-08-03T07:14:45Z,42.805,6.029,13.2958,4.59956,2469.89,2019-8-03T09:15:05Z
2019-08-03T07:17:49Z,42.805,6.029,13.2964,4.59957,2469.853,2019-8-03T09:18:08Z
2019-08-03T07:20:52Z,42.805,6.029,13.2958,4.59958,2469.9,2019-8-03T09:21:12Z
2019-08-03T07:23:55Z,42.805,6.029,13.2961,4.59957,2469.89,2019-8-03T09:24:15Z
2019-08-03T07:26:58Z,42.805,6.029,13.2958,4.59958,2469.9,2019-8-03T09:27:18Z
2019-08-03T07:30:02Z,42.805,6.029,13.2959,4.59961,2469.876,2019-8-03T09:30:21Z
2019-08-03T07:33:05Z,42.805,6.029,13.2957,4.59957,2469.923,2019-8-03T09:33:25Z
2019-08-03T07:36:08Z,42.805,6.029,13.2958,4.59958,2469.9,2019-8-03T09:36:28Z
2019-08-03T07:39:12Z,42.805,6.029,13.2983,4.59986,2469.923,2019-8-03T09:39:32Z
2019-08-03T07:42:15Z,42.805,6.029,13.2982,4.59996,2469.886,2019-8-03T09:42:35Z
2019-08-03T07:45:18Z,42.805,6.029,13.2961,4.59964,2469.9,2019-8-03T09:45:38Z
2019-08-03T07:48:22Z,42.805,6.029,13.2962,4.59960,2469.9,2019-8-03T09:48:41Z
2019-08-03T07:51:25Z,42.805,6.029,13.2961,4.59961,2469.937,2019-8-03T09:51:45Z
2019-08-03T07:54:28Z,42.805,6.029,13.2964,4.59957,2469.923,2019-8-03T09:54:48Z
2019-08-03T07:57:32Z,42.805,6.029,13.2967,4.59965,2469.9,2019-8-03T09:57:51Z
2019-08-03T08:00:35Z,42.805,6.029,13.2984,4.59960,2469.923,2019-8-03T10:00:55Z
2019-08-03T08:03:38Z,42.805,6.029,13.2955,4.59958,2469.9,2019-8-03T10:03:58Z
2019-08-03T08:06:42Z,42.805,6.029,13.2960,4.59958,2469.9,2019-8-03T10:07:01Z
2019-08-03T08:09:45Z,42.805,6.029,13.2976,4.59965,2469.914,2019-8-03T10:10:05Z
2019-08-03T08:12:48Z,42.805,6.029,13.2982,4.59982,2469.923,2019-8-03T10:13:08Z
2019-08-03T08:15:51Z,42.805,6.029,13.2981,4.59984,2469.9,2019-8-03T10:16:11Z
2019-08-03T08:18:55Z,42.805,6.029,13.2985,4.59986,2469.937,2019-8-03T10:19:15Z
2019-08-03T08:21:58Z,42.805,6.029,13.2970,4.59963,2469.923,2019-8-03T10:22:18Z
2019-08-03T08:25:02Z,42.805,6.029,13.2960,4.59958,2469.923,2019-8-03T10:25:21Z
2019-08-03T08:28:05Z,42.805,6.029,13.2961,4.59961,2469.914,2019-8-03T10:28:25Z
2019-08-03T08:31:08Z,42.805,6.029,13.2964,4.59958,2469.9,2019-8-03T10:31:28Z
2019-08-03T08:34:11Z,42.805,6.029,13.2958,4.59957,2469.9,2019-8-03T10:34:31Z
2019-08-03T08:37:15Z,42.805,6.029,13.2964,4.59960,2469.923,2019-8-03T10:37:34Z
2019-08-03T08:40:18Z,42.805,6.029,13.2958,4.59973,2469.9,2019-8-03T10:40:38Z
2019-08-03T08:43:21Z,42.805,6.029,13.2980,4.60011,2469.937,2019-8-03T10:43:41Z
2019-08-03T08:46:24Z,42.805,6.029,13.2985,4.59971,2469.914,2019-8-03T10:46:44Z
2019-08-03T08:49:28Z,42.805,6.029,13.2979,4.59986,2469.923,2019-8-03T10:49:48Z
2019-08-03T08:52:31Z,42.805,6.029,13.2972,4.59996,2469.937,2019-8-03T10:52:51Z
2019-08-03T08:55:34Z,42.805,6.029,13.2976,4.59981,2469.947,2019-8-03T10:55:54Z
2019-08-03T08:58:38Z,42.805,6.029,13.2963,4.59966,2469.9,2019-8-03T10:58:57Z
2019-08-03T09:01:41Z,42.805,6.029,13.2983,4.59978,2469.923,2019-8-03T11:02:01Z
2019-08-03T09:04:44Z,42.805,6.029,13.2979,4.59978,2469.9,2019-8-03T11:05:04Z
2019-08-03T09:07:47Z,42.805,6.029,13.2976,4.59973,2469.914,2019-8-03T11:08:07Z
2019-08-03T09:10:51Z,42.805,6.029,13.2961,4.59975,2469.9,2019-8-03T11:11:11Z
2019-08-03T09:13:54Z,42.805,6.029,13.2982,4.59986,2469.914,2019-8-03T11:14:14Z
2019-08-03T09:16:57Z,42.805,6.029,13.2974,4.59977,2469.867,2019-8-03T11:17:17Z
2019-08-03T09:20:01Z,42.805,6.029,13.2985,4.59968,2469.876,2019-8-03T11:20:21Z
2019-08-03T09:23:04Z,42.805,6.029,13.2965,4.59970,2469.9,2019-8-03T11:23:24Z
2019-08-03T09:26:07Z,42.805,6.029,13.2980,4.59985,2469.937,2019-8-03T11:26:27Z
2019-08-03T09:29:11Z,42.805,6.029,13.2976,4.60002,2469.9,2019-8-03T11:29:30Z
2019-08-03T09:32:14Z,42.805,6.029,13.2979,4.59997,2469.9,2019-8-03T11:32:34Z
2019-08-03T09:35:17Z,42.805,6.029,13.2969,4.59984,2469.937,2019-8-03T11:35:37Z
2019-08-03T09:38:20Z,42.805,6.029,13.2979,4.59988,2469.876,2019-8-03T11:38:40Z
2019-08-03T09:41:24Z,42.805,6.029,13.2978,4.59973,2469.876,2019-8-03T11:41:44Z
2019-08-03T09:44:27Z,42.805,6.029,13.2971,4.59993,2469.914,2019-8-03T11:44:47Z
2019-08-03T09:47:30Z,42.805,6.029,13.2990,4.60020,2469.876,2019-8-03T11:47:50Z
2019-08-03T09:50:34Z,42.805,6.029,13.2974,4.59983,2469.89,2019-8-03T11:50:53Z
2019-08-03T09:53:37Z,42.805,6.029,13.2986,4.59986,2469.9,2019-8-03T11:53:57Z
2019-08-03T09:56:40Z,42.805,6.029,13.2969,4.59979,2469.876,2019-8-03T11:57:00Z
2019-08-03T09:59:43Z,42.805,6.029,13.2983,4.59982,2469.914,2019-8-03T12:00:03Z
2019-08-03T10:02:47Z,42.805,6.029,13.2982,4.59982,2469.867,2019-8-03T12:03:07Z
2019-08-03T10:05:50Z,42.805,6.029,13.2979,4.59973,2469.89,2019-8-03T12:06:10Z
2019-08-03T10:08:53Z,42.805,6.029,13.2986,4.60002,2469.876,2019-8-03T12:09:13Z
2019-08-03T10:11:57Z,42.805,6.029,13.2990,4.59991,2469.853,2019-8-03T12:12:17Z
2019-08-03T10:15:00Z,42.805,6.029,13.2991,4.60007,2469.876,2019-8-03T12:15:20Z
2019-08-03T10:18:03Z,42.805,6.029,13.2969,4.59977,2469.853,2019-8-03T12:18:23Z
2019-08-03T10:21:07Z,42.805,6.029,13.2976,4.60016,2469.867,2019-8-03T12:21:26Z
2019-08-03T10:24:10Z,42.805,6.029,13.2980,4.60054,2469.867,2019-8-03T12:24:30Z
2019-08-03T10:27:13Z,42.805,6.029,13.2992,4.59997,2469.876,2019-8-03T12:27:33Z
2019-08-03T10:30:16Z,42.805,6.029,13.2963,4.59968,2469.867,2019-8-03T12:30:36Z
2019-08-03T10:33:20Z,42.805,6.029,13.2960,4.59964,2469.876,2019-8-03T12:33:40Z
2019-08-03T10:36:23Z,42.805,6.029,13.2962,4.59966,2469.89,2019-8-03T12:36:43Z
2019-08-03T10:39:26Z,42.805,6.029,13.2961,4.59961,2469.867,2019-8-03T12:39:46Z
2019-08-03T10:42:30Z,42.805,6.029,13.2972,4.59983,2469.853,2019-8-03T12:42:49Z
2019-08-03T10:45:33Z,42.805,6.029,13.2999,4.59964,2469.876,2019-8-03T12:45:53Z
2019-08-03T10:48:36Z,42.805,6.029,13.2967,4.59980,2469.853,2019-8-03T12:48:56Z
2019-08-03T10:51:39Z,42.805,6.029,13.2975,4.59966,2469.867,2019-8-03T12:51:59Z
2019-08-03T10:54:43Z,42.805,6.029,13.2992,4.60001,2469.83,2019-8-03T12:55:03Z
2019-08-03T10:57:46Z,42.805,6.029,13.2968,4.59962,2469.867,2019-8-03T12:58:06Z
2019-08-03T11:00:49Z,42.805,6.029,13.2976,4.59990,2469.853,2019-8-03T13:01:09Z
2019-08-03T11:03:53Z,42.805,6.029,13.2979,4.59992,2469.844,2019-8-03T13:04:12Z
2019-08-03T11:06:56Z,42.805,6.029,13.2975,4.59996,2469.844,2019-8-03T13:07:16Z
2019-08-03T11:09:59Z,42.805,6.029,13.2985,4.59984,2469.806,2019-8-03T13:10:19Z
2019-08-03T11:13:02Z,42.805,6.029,13.2978,4.59962,2469.844,2019-8-03T13:13:22Z
2019-08-03T11:16:06Z,42.805,6.029,13.2964,4.59958,2469.853,2019-8-03T13:16:25Z
2019-08-03T11:19:09Z,42.805,6.029,13.2967,4.59958,2469.821,2019-8-03T13:19:29Z
2019-08-03T11:22:12Z,42.805,6.029,13.2964,4.59971,2469.867,2019-8-03T13:22:32Z
2019-08-03T11:25:16Z,42.805,6.029,13.2979,4.59984,2469.83,2019-8-03T13:25:35Z
2019-08-03T11:28:19Z,42.805,6.029,13.3006,4.59991,2469.83,2019-8-03T13:28:39Z
2019-08-03T11:31:22Z,42.805,6.029,13.2986,4.59983,2469.844,2019-8-03T13:31:42Z
2019-08-03T11:34:25Z,42.805,6.029,13.2997,4.59988,2469.806,2019-8-03T13:34:45Z
2019-08-03T11:37:29Z,42.805,6.029,13.2987,4.59986,2469.844,2019-8-03T13:37:48Z
2019-08-03T11:40:32Z,42.805,6.029,13.2976,4.59980,2469.783,2019-8-03T13:40:52Z
2019-08-03T11:43:35Z,42.805,6.029,13.2986,4.59960,2469.806,2019-8-03T13:43:55Z
2019-08-03T11:46:39Z,42.805,6.029,13.2961,4.59964,2469.783,2019-8-03T13:46:58Z
2019-08-03T11:49:42Z,42.805,6.029,13.2957,4.59962,2469.783,2019-8-03T13:50:02Z
2019-08-03T11:52:45Z,42.805,6.029,13.2961,4.59961,2469.806,2019-8-03T13:53:05Z
2019-08-03T11:55:48Z,42.805,6.029,13.2960,4.59961,2469.806,2019-8-03T13:56:08Z
2019-08-03T11:58:52Z,42.805,6.029,13.2958,4.59968,2469.783,2019-8-03T13:59:12Z
2019-08-03T12:01:55Z,42.805,6.029,13.2962,4.59964,2469.821,2019-8-03T14:02:15Z
2019-08-03T12:04:58Z,42.805,6.029,13.2963,4.59964,2469.797,2019-8-03T14:05:18Z
2019-08-03T12:08:02Z,42.805,6.029,13.2958,4.59966,2469.783,2019-8-03T14:08:21Z
2019-08-03T12:11:05Z,42.805,6.029,13.2958,4.59966,2469.821,2019-8-03T14:11:25Z
2019-08-03T12:14:08Z,42.805,6.029,13.2959,4.59963,2469.797,2019-8-03T14:14:28Z
2019-08-03T12:17:12Z,42.805,6.029,13.2960,4.59967,2469.76,2019-8-03T14:17:31Z
2019-08-03T12:20:15Z,42.805,6.029,13.2962,4.59965,2469.821,2019-8-03T14:20:35Z
2019-08-03T12:23:18Z,42.805,6.029,13.2959,4.59960,2469.783,2019-8-03T14:23:38Z
2019-08-03T12:26:21Z,42.805,6.029,13.2959,4.59962,2469.797,2019-8-03T14:26:41Z
2019-08-03T12:29:25Z,42.805,6.029,13.2959,4.59958,2469.806,2019-8-03T14:29:45Z
2019-08-03T12:32:28Z,42.805,6.029,13.2959,4.59967,2469.773,2019-8-03T14:32:48Z
2019-08-03T12:35:31Z,42.805,6.029,13.2960,4.59958,2469.75,2019-8-03T14:35:51Z
2019-08-03T12:38:35Z,42.805,6.029,13.2966,4.59963,2469.737,2019-8-03T14:38:55Z
2019-08-03T12:41:38Z,42.805,6.029,13.2966,4.59963,2469.783,2019-8-03T14:41:58Z
2019-08-03T12:44:41Z,42.805,6.029,13.2982,4.59961,2469.76,2019-8-03T14:45:01Z
2019-08-03T12:47:45Z,42.805,6.029,13.2994,4.59984,2469.806,2019-8-03T14:48:05Z
2019-08-03T12:50:48Z,42.805,6.029,13.2969,4.59964,2469.797,2019-8-03T14:51:08Z
2019-08-03T12:53:52Z,42.805,6.029,13.2963,4.59961,2469.75,2019-8-03T14:54:12Z
2019-08-03T12:56:55Z,42.805,6.029,13.2962,4.59963,2469.773,2019-8-03T14:57:15Z
2019-08-03T12:59:58Z,42.805,6.029,13.2958,4.59961,2469.773,2019-8-03T15:00:18Z
2019-08-03T13:03:02Z,42.805,6.029,13.2963,4.59964,2469.737,2019-8-03T15:03:22Z
2019-08-03T13:06:05Z,42.805,6.029,13.2956,4.59958,2469.797,2019-8-03T15:06:25Z
2019-08-03T13:09:08Z,42.805,6.029,13.2961,4.59962,2469.75,2019-8-03T15:09:28Z
2019-08-03T13:12:12Z,42.805,6.029,13.2960,4.59961,2469.737,2019-8-03T15:12:31Z
2019-08-03T13:15:15Z,42.805,6.029,13.2961,4.59958,2469.737,2019-8-03T15:15:35Z
2019-08-03T13:18:18Z,42.805,6.029,13.2968,4.59987,2469.737,2019-8-03T15:18:38Z
2019-08-03T13:21:21Z,42.805,6.029,13.2961,4.59961,2469.76,2019-8-03T15:21:41Z
2019-08-03T13:24:25Z,42.805,6.029,13.2958,4.59961,2469.75,2019-8-03T15:24:45Z
2019-08-03T13:27:28Z,42.805,6.029,13.2957,4.59962,2469.737,2019-8-03T15:27:48Z
2019-08-03T13:30:31Z,42.805,6.029,13.2960,4.59963,2469.727,2019-8-03T15:30:51Z
2019-08-03T13:33:35Z,42.805,6.029,13.2961,4.59960,2469.737,2019-8-03T15:33:55Z
2019-08-03T13:36:38Z,42.805,6.029,13.2963,4.59966,2469.737,2019-8-03T15:36:58Z
2019-08-03T13:39:41Z,42.805,6.029,13.2959,4.59958,2469.713,2019-8-03T15:40:01Z
2019-08-03T13:42:45Z,42.805,6.029,13.2961,4.59967,2469.737,2019-8-03T15:43:05Z
2019-08-03T13:45:48Z,42.805,6.029,13.2961,4.59960,2469.737,2019-8-03T15:46:08Z
2019-08-03T13:48:51Z,42.805,6.029,13.2962,4.59958,2469.713,2019-8-03T15:49:11Z
2019-08-03T13:51:55Z,42.805,6.029,13.2997,4.59996,2469.713,2019-8-03T15:52:14Z
2019-08-03T13:54:58Z,42.805,6.029,13.2966,4.59971,2469.69,2019-8-03T15:55:18Z
2019-08-03T13:58:01Z,42.805,6.029,13.2963,4.59961,2469.727,2019-8-03T15:58:21Z
2019-08-03T14:01:04Z,42.805,6.029,13.2953,4.59960,2469.69,2019-8-03T16:01:24Z
2019-08-03T14:04:08Z,42.805,6.029,13.2967,4.59963,2469.713,2019-8-03T16:04:27Z
2019-08-03T14:07:11Z,42.805,6.029,13.2966,4.59975,2469.704,2019-8-03T16:07:31Z
2019-08-03T14:10:14Z,42.805,6.029,13.2962,4.59963,2469.713,2019-8-03T16:10:34Z
2019-08-03T14:13:18Z,42.805,6.029,13.2961,4.59964,2469.704,2019-8-03T16:13:38Z
2019-08-03T14:16:21Z,42.805,6.029,13.2958,4.59961,2469.713,2019-8-03T16:16:41Z
2019-08-03T14:19:24Z,42.805,6.029,13.2958,4.59964,2469.704,2019-8-03T16:19:44Z
2019-08-03T14:22:28Z,42.805,6.029,13.2964,4.59960,2469.704,2019-8-03T16:22:47Z
2019-08-03T14:25:31Z,42.805,6.029,13.2964,4.59964,2469.713,2019-8-03T16:25:51Z
2019-08-03T14:28:34Z,42.805,6.029,13.2957,4.59961,2469.69,2019-8-03T16:28:54Z
2019-08-03T14:31:38Z,42.805,6.029,13.2957,4.59961,2469.713,2019-8-03T16:31:57Z
2019-08-03T14:34:41Z,42.805,6.029,13.2960,4.59963,2469.69,2019-8-03T16:35:01Z
2019-08-03T14:37:44Z,42.805,6.029,13.2961,4.59963,2469.713,2019-8-03T16:38:04Z
2019-08-03T14:40:48Z,42.805,6.029,13.2959,4.59961,2469.69,2019-8-03T16:41:07Z
2019-08-03T14:43:51Z,42.805,6.029,13.2961,4.59967,2469.69,2019-8-03T16:44:11Z
2019-08-03T14:46:54Z,42.805,6.029,13.2964,4.59961,2469.69,2019-8-03T16:47:14Z
2019-08-03T14:49:57Z,42.805,6.029,13.2960,4.59960,2469.704,2019-8-03T16:50:17Z
2019-08-03T14:53:01Z,42.805,6.029,13.2964,4.59961,2469.69,2019-8-03T16:53:20Z
2019-08-03T14:56:04Z,42.805,6.029,13.2961,4.59971,2469.69,2019-8-03T16:56:24Z
2019-08-03T14:59:07Z,42.805,6.029,13.2961,4.59979,2469.713,2019-8-03T16:59:27Z
2019-08-03T15:02:11Z,42.805,6.029,13.2978,4.59964,2469.68,2019-8-03T17:02:30Z
2019-08-03T15:05:14Z,42.805,6.029,13.2959,4.59968,2469.643,2019-8-03T17:05:34Z
2019-08-03T15:08:17Z,42.805,6.029,13.2961,4.59964,2469.667,2019-8-03T17:08:37Z
2019-08-03T15:11:20Z,42.805,6.029,13.2961,4.59961,2469.704,2019-8-03T17:11:40Z
2019-08-03T15:14:24Z,42.805,6.029,13.2967,4.59967,2469.713,2019-8-03T17:14:43Z